EN

Hourly Weather Allieres

Today, 17 January, Sunday

Time Temperature Precipitation Wind Pressure Humidity
00:00 +6°C° 0 mm 2 mps 723 mmHg 73%
01:00 +6°C° 0 mm 2 mps 723 mmHg 72%
02:00 +5°C° 0 mm 3 mps 722 mmHg 71%
03:00 +7°C° 0 mm 3 mps 722 mmHg 70%
04:00 +7°C° 0 mm 3 mps 722 mmHg 73%
05:00 +6°C° 0 mm 4 mps 722 mmHg 75%
06:00 +8°C° 0 mm 3 mps 722 mmHg 78%
07:00 +8°C° 0.2 mm 3 mps 722 mmHg 82%
08:00 +7°C° 0.2 mm 4 mps 721 mmHg 85%
09:00 +7°C° 0.2 mm 4 mps 721 mmHg 89%
10:00 +7°C° 0.7 mm 4 mps 722 mmHg 91%
11:00 +7°C° 0.7 mm 4 mps 722 mmHg 93%
12:00 +7°C° 0.7 mm 4 mps 722 mmHg 95%
13:00 +6°C° 0.4 mm 4 mps 722 mmHg 93%
14:00 +6°C° 0.4 mm 4 mps 722 mmHg 92%
15:00 +7°C° 0.4 mm 3 mps 722 mmHg 90%
16:00 +5°C° 0.1 mm 3 mps 722 mmHg 91%
17:00 +4°C° 0.1 mm 3 mps 723 mmHg 92%
18:00 +5°C° 0.1 mm 2 mps 724 mmHg 93%
19:00 +4°C° 0 mm 2 mps 724 mmHg 92%
20:00 +5°C° 0 mm 1 mps 724 mmHg 92%
21:00 +5°C° 0 mm 1 mps 725 mmHg 92%
22:00 +4°C° 0 mm 1 mps 725 mmHg 89%
23:00 +3°C° 0 mm 1 mps 725 mmHg 86%

Tomorrow, 18 January, Monday

Time Temperature Precipitation Wind Pressure Humidity
00:00 +2°C° 0 mm 1 mps 725 mmHg 83%
01:00 +2°C° 0 mm 1 mps 725 mmHg 81%
02:00 +2°C° 0 mm 1 mps 724 mmHg 78%
03:00 +2°C° 0 mm 1 mps 724 mmHg 75%
04:00 +1°C° 0 mm 0 mps 724 mmHg 74%
05:00 +1°C° 0 mm 0 mps 724 mmHg 74%
06:00 0°C° 0 mm 0 mps 724 mmHg 73%
07:00 +1°C° 0 mm 0 mps 724 mmHg 72%
08:00 +2°C° 0 mm 0 mps 725 mmHg 70%
09:00 +3°C° 0 mm 0 mps 725 mmHg 69%
10:00 +4°C° 0 mm 0 mps 725 mmHg 68%
11:00 +6°C° 0 mm 0 mps 725 mmHg 66%
12:00 +8°C° 0 mm 1 mps 724 mmHg 65%
13:00 +8°C° 0 mm 1 mps 724 mmHg 66%
14:00 +8°C° 0 mm 1 mps 723 mmHg 67%
15:00 +8°C° 0 mm 1 mps 723 mmHg 68%
16:00 +6°C° 0 mm 1 mps 723 mmHg 70%
17:00 +5°C° 0 mm 1 mps 723 mmHg 72%
18:00 +3°C° 0 mm 1 mps 723 mmHg 74%
19:00 +3°C° 0 mm 1 mps 723 mmHg 71%
20:00 +3°C° 0 mm 1 mps 723 mmHg 67%
21:00 +3°C° 0 mm 1 mps 723 mmHg 64%
22:00 +3°C° 0 mm 1 mps 723 mmHg 62%
23:00 +3°C° 0 mm 1 mps 723 mmHg 61%

Day after tomorrow, 19 January, Tuesday

Time Temperature Precipitation Wind Pressure Humidity
00:00 +3°C° 0 mm 1 mps 723 mmHg 59%
01:00 +3°C° 0 mm 1 mps 722 mmHg 57%
02:00 +3°C° 0 mm 1 mps 722 mmHg 56%
03:00 +3°C° 0 mm 1 mps 722 mmHg 54%
04:00 +2°C° 0 mm 2 mps 721 mmHg 53%
05:00 +2°C° 0 mm 2 mps 721 mmHg 52%
06:00 +2°C° 0 mm 2 mps 721 mmHg 51%
07:00 +3°C° 0 mm 2 mps 721 mmHg 52%
08:00 +4°C° 0 mm 2 mps 721 mmHg 52%
09:00 +5°C° 0 mm 2 mps 721 mmHg 52%
10:00 +7°C° 0 mm 2 mps 721 mmHg 52%
11:00 +9°C° 0 mm 2 mps 720 mmHg 52%
12:00 +12°C° 0 mm 1 mps 720 mmHg 51%
13:00 +12°C° 0 mm 2 mps 720 mmHg 56%
14:00 +12°C° 0 mm 2 mps 719 mmHg 60%
15:00 +10°C° 0 mm 2 mps 718 mmHg 64%
16:00 +8°C° 0 mm 3 mps 718 mmHg 68%
17:00 +7°C° 0 mm 3 mps 718 mmHg 71%
18:00 +4°C° 0 mm 4 mps 718 mmHg 74%
19:00 +3°C° 0 mm 4 mps 717 mmHg 72%
20:00 +3°C° 0 mm 4 mps 717 mmHg 70%
21:00 +3°C° 0 mm 4 mps 717 mmHg 68%
22:00 +3°C° 0 mm 4 mps 716 mmHg 68%
23:00 +3°C° 0 mm 4 mps 716 mmHg 68%

20 January, Wednesday

Time Temperature Precipitation Wind Pressure Humidity
00:00 +3°C° 0 mm 4 mps 716 mmHg 68%
01:00 +3°C° 0 mm 4 mps 715 mmHg 69%
02:00 +3°C° 0 mm 4 mps 714 mmHg 69%
03:00 +3°C° 0 mm 4 mps 713 mmHg 69%
04:00 +3°C° 0 mm 4 mps 713 mmHg 70%
05:00 +1°C° 0 mm 4 mps 713 mmHg 71%
06:00 +2°C° 0 mm 3 mps 712 mmHg 72%
07:00 +3°C° 0 mm 3 mps 712 mmHg 70%
08:00 +4°C° 0 mm 3 mps 712 mmHg 69%
09:00 +5°C° 0 mm 3 mps 712 mmHg 67%
10:00 +7°C° 0 mm 3 mps 711 mmHg 66%
11:00 +8°C° 0 mm 3 mps 711 mmHg 65%
12:00 +9°C° 0 mm 2 mps 711 mmHg 64%
13:00 +9°C° 0 mm 2 mps 710 mmHg 66%
14:00 +9°C° 0 mm 2 mps 709 mmHg 68%
15:00 +9°C° 0 mm 2 mps 708 mmHg 70%
16:00 +8°C° 0 mm 2 mps 708 mmHg 72%
17:00 +7°C° 0 mm 3 mps 708 mmHg 74%
18:00 +5°C° 0 mm 3 mps 708 mmHg 76%
19:00 +5°C° 0 mm 3 mps 708 mmHg 76%
20:00 +6°C° 0 mm 2 mps 708 mmHg 75%
21:00 +6°C° 0 mm 2 mps 708 mmHg 74%
22:00 +6°C° 0 mm 2 mps 708 mmHg 74%
23:00 +6°C° 0 mm 2 mps 708 mmHg 73%

21 January, Thursday

Time Temperature Precipitation Wind Pressure Humidity
00:00 +6°C° 0 mm 2 mps 708 mmHg 73%
01:00 +6°C° 0 mm 2 mps 708 mmHg 73%
02:00 +6°C° 0 mm 2 mps 708 mmHg 74%
03:00 +6°C° 0 mm 2 mps 708 mmHg 74%
04:00 +6°C° 0.2 mm 2 mps 709 mmHg 76%
05:00 +6°C° 0.2 mm 2 mps 709 mmHg 78%
06:00 +6°C° 0.2 mm 2 mps 710 mmHg 80%
07:00 +8°C° 0.1 mm 1 mps 710 mmHg 78%
08:00 +8°C° 0.1 mm 1 mps 711 mmHg 77%
09:00 +9°C° 0.1 mm 1 mps 712 mmHg 76%
10:00 +10°C° 0 mm 1 mps 712 mmHg 74%
11:00 +11°C° 0 mm 1 mps 712 mmHg 72%
12:00 +12°C° 0 mm 1 mps 712 mmHg 69%
13:00 +12°C° 0 mm 2 mps 712 mmHg 72%
14:00 +12°C° 0 mm 2 mps 711 mmHg 74%
15:00 +12°C° 0 mm 2 mps 711 mmHg 76%
16:00 +10°C° 0 mm 3 mps 710 mmHg 78%
17:00 +9°C° 0 mm 3 mps 710 mmHg 80%
18:00 +8°C° 0 mm 3 mps 710 mmHg 82%
19:00 +8°C° 0.1 mm 3 mps 709 mmHg 82%
20:00 +8°C° 0.1 mm 3 mps 709 mmHg 81%
21:00 +8°C° 0.1 mm 3 mps 708 mmHg 81%
22:00 +8°C° 0.2 mm 2 mps 708 mmHg 81%
23:00 +8°C° 0.2 mm 2 mps 708 mmHg 82%

22 January, Friday

Time Temperature Precipitation Wind Pressure Humidity
00:00 +8°C° 0.2 mm 2 mps 707 mmHg 83%
01:00 +8°C° 0.4 mm 2 mps 707 mmHg 84%
02:00 +8°C° 0.4 mm 3 mps 706 mmHg 85%
03:00 +8°C° 0.4 mm 3 mps 706 mmHg 86%
04:00 +8°C° 0.9 mm 2 mps 706 mmHg 89%
05:00 +7°C° 0.9 mm 2 mps 707 mmHg 93%
06:00 +8°C° 0.9 mm 1 mps 707 mmHg 96%
07:00 +8°C° 0.2 mm 1 mps 707 mmHg 93%
08:00 +9°C° 0.2 mm 1 mps 708 mmHg 90%
09:00 +9°C° 0.2 mm 1 mps 708 mmHg 87%
10:00 +10°C° 0 mm 1 mps 708 mmHg 80%
11:00 +11°C° 0 mm 1 mps 707 mmHg 74%
12:00 +12°C° 0 mm 1 mps 707 mmHg 68%
13:00 +12°C° 0.4 mm 2 mps 706 mmHg 70%
14:00 +12°C° 0.4 mm 2 mps 706 mmHg 72%
15:00 +10°C° 0.4 mm 2 mps 705 mmHg 74%
16:00 +9°C° 1.4 mm 2 mps 705 mmHg 80%
17:00 +8°C° 1.4 mm 2 mps 705 mmHg 86%
18:00 +7°C° 1.4 mm 2 mps 706 mmHg 93%
19:00 +5°C° 2.3 mm 4 mps 707 mmHg 93%
20:00 +4°C° 2.3 mm 6 mps 708 mmHg 94%
21:00 +2°C° 2.3 mm 8 mps 709 mmHg 94%
22:00 +3°C° 1.4 mm 7 mps 710 mmHg 92%
23:00 +3°C° 1.4 mm 6 mps 711 mmHg 90%
Show more